Date String (YYYY-MM-DD hh:mm:ss) UTC,Instrument flags,Ambient pressure (hPa),Sample flow (lpm),Bypass flow (lpm),Sample temperature (°C),Ambient temperature (°C),ASC tube jacket temperature (°C),LED temperature (°C),Box temperature (°C),Sample RH (%),Span deviation,Mass concentration (μg/m³),Mass concentration (μg/m³),Mass concentration (μg/m³)
DateTimeUTC,F1_M11,P_M11,Q1_M11,Q2_M11,T1_M11,T2_M11,T3_M11,T4_M11,T5_M11,U1_M11,ZSPAN_M11,X2_M11,X0_M11,X1_M11
2022-04-23 07:00:00,,0809.0,5.02,0.00,25.9,24.6,00.0,35.0,27.5,09.1,0000.0,0002.83,0008.50,0001.11
2022-04-23 07:01:00,,0808.9,4.99,0.00,25.9,24.6,00.0,35.0,27.5,09.1,0000.0,0002.84,0007.91,0001.12
2022-04-23 07:02:00,,0808.9,5.02,0.00,25.8,24.6,00.0,35.0,27.6,09.1,0000.0,0002.81,0007.87,0001.12
2022-04-23 07:03:00,,0809.0,5.00,0.00,25.8,24.6,00.0,35.0,27.5,09.2,0000.0,0002.77,0007.86,0001.10
2022-04-23 07:04:00,,0809.0,4.99,0.00,25.8,24.6,00.0,35.0,27.5,09.1,0000.0,0002.70,0007.78,0001.09
2022-04-23 07:05:00,,0809.2,5.01,0.00,25.8,24.6,00.0,34.9,27.4,09.0,0000.0,0002.78,0008.44,0001.09
2022-04-23 07:06:00,,0809.3,4.98,0.00,25.7,24.6,00.0,34.9,27.3,08.9,0000.0,0002.82,0008.66,0001.10
2022-04-23 07:07:00,,0809.3,5.01,0.00,25.7,24.5,00.0,34.9,27.3,08.6,0000.0,0002.81,0008.78,0001.10
2022-04-23 07:08:00,,0809.3,4.99,0.00,25.7,24.5,00.0,34.9,27.4,08.8,0000.0,0002.82,0008.90,0001.11
2022-04-23 07:09:00,,0809.3,5.02,0.00,25.7,24.5,00.0,34.9,27.3,08.9,0000.0,0002.70,0009.01,0001.10
2022-04-23 07:10:00,,0809.4,4.99,0.00,25.7,24.5,00.0,34.9,27.3,08.9,0000.0,0002.55,0008.79,0001.09
2022-04-23 07:11:00,,0809.4,5.01,0.00,25.7,24.5,00.0,34.8,27.3,08.9,0000.0,0002.46,0007.86,0001.09
2022-04-23 07:12:00,,0809.5,4.98,0.00,25.7,24.5,00.0,34.8,27.3,09.0,0000.0,0002.46,0007.91,0001.08
2022-04-23 07:13:00,,0809.5,5.00,0.00,25.6,24.5,00.0,34.8,27.4,09.1,0000.0,0002.47,0008.05,0001.09
2022-04-23 07:14:00,,0809.4,5.01,0.00,25.7,24.5,00.0,34.8,27.4,09.1,0000.0,0002.48,0008.09,0001.09
2022-04-23 07:15:00,,0809.6,5.00,0.00,25.6,24.5,00.0,34.8,27.4,09.2,0000.0,0002.47,0008.23,0001.08
2022-04-23 07:16:00,,0809.6,4.99,0.00,25.6,24.4,00.0,34.8,27.3,09.4,0000.0,0002.53,0008.31,0001.07
2022-04-23 07:17:00,,0809.5,5.02,0.00,25.6,24.4,00.0,34.8,27.3,09.6,0000.0,0002.47,0007.94,0001.08
2022-04-23 07:18:00,,0809.6,4.99,0.00,25.6,24.4,00.0,34.8,27.3,09.5,0000.0,0002.49,0007.85,0001.09
2022-04-23 07:19:00,,0809.4,5.00,0.00,25.6,24.4,00.0,34.7,27.4,09.6,0000.0,0002.53,0007.83,0001.09
2022-04-23 07:20:00,,0809.4,5.00,0.00,25.6,24.4,00.0,34.7,27.3,09.7,0000.0,0002.53,0007.64,0001.09
2022-04-23 07:21:00,,0809.4,5.01,0.00,25.6,24.4,00.0,34.7,27.3,09.7,0000.0,0002.54,0007.32,0001.09
2022-04-23 07:22:00,,0809.3,4.99,0.00,25.6,24.4,00.0,34.7,27.3,09.7,0000.0,0002.59,0007.38,0001.07
2022-04-23 07:23:00,,0809.3,5.01,0.00,25.6,24.3,00.0,34.7,27.3,09.7,0000.0,0002.62,0007.41,0001.07
2022-04-23 07:24:00,,0809.2,4.98,0.00,25.5,24.3,00.0,34.6,27.2,09.9,0000.0,0002.60,0007.29,0001.07
2022-04-23 07:25:00,,0809.1,5.01,0.00,25.5,24.3,00.0,34.6,27.2,10.1,0000.0,0002.62,0007.88,0001.08
2022-04-23 07:26:00,,0809.3,4.99,0.00,25.5,24.3,00.0,34.6,27.2,10.2,0000.0,0002.65,0008.24,0001.08
2022-04-23 07:27:00,,0809.3,5.01,0.00,25.4,24.3,00.0,34.6,27.1,10.2,0000.0,0002.61,0008.06,0001.08
2022-04-23 07:28:00,,0809.2,4.99,0.00,25.4,24.3,00.0,34.6,27.1,10.2,0000.0,0002.59,0008.65,0001.07
2022-04-23 07:29:00,,0809.2,5.01,0.00,25.4,24.3,00.0,34.6,27.1,10.2,0000.0,0002.57,0008.71,0001.05
2022-04-23 07:30:00,,0809.3,5.01,0.00,25.4,24.3,00.0,34.5,27.1,10.2,0000.0,0002.50,0008.71,0001.03
2022-04-23 07:31:00,,0809.3,5.00,0.00,25.4,24.3,00.0,34.5,27.1,10.3,0000.0,0002.49,0008.51,0001.02
2022-04-23 07:32:00,,0809.3,5.01,0.00,25.3,24.2,00.0,34.5,27.0,10.3,0000.0,0002.57,0008.84,0001.02
2022-04-23 07:33:00,,0809.3,4.98,0.00,25.3,24.2,00.0,34.5,27.0,10.4,0000.0,0002.49,0008.86,0001.01
2022-04-23 07:34:00,,0809.4,5.02,0.00,25.3,24.2,00.0,34.5,27.0,10.4,0000.0,0002.38,0008.73,0000.98
2022-04-23 07:35:00,,0809.3,4.99,0.00,25.3,24.2,00.0,34.5,27.0,10.5,0000.0,0002.44,0008.69,0000.97
2022-04-23 07:36:00,,0809.3,5.00,0.00,25.3,24.2,00.0,34.4,27.0,10.5,0000.0,0002.40,0008.08,0000.94
2022-04-23 07:37:00,,0809.4,5.01,0.00,25.3,24.1,00.0,34.4,26.9,10.5,0000.0,0002.35,0007.71,0000.94
2022-04-23 07:38:00,,0809.4,4.99,0.00,25.2,24.1,00.0,34.4,26.9,10.6,0000.0,0002.36,0008.05,0000.94
2022-04-23 07:39:00,,0809.3,5.00,0.00,25.2,24.1,00.0,34.4,26.9,10.6,0000.0,0002.34,0007.31,0000.93
2022-04-23 07:40:00,,0809.4,5.01,0.00,25.2,24.1,00.0,34.4,26.9,10.5,0000.0,0002.36,0007.09,0000.92
2022-04-23 07:41:00,,0809.3,4.99,0.00,25.2,24.1,00.0,34.4,26.9,10.6,0000.0,0002.42,0007.11,0000.91
2022-04-23 07:42:00,,0809.2,5.00,0.00,25.2,24.1,00.0,34.4,26.9,10.7,0000.0,0002.41,0007.17,0000.90
2022-04-23 07:43:00,,0809.2,5.01,0.00,25.2,24.1,00.0,34.4,26.9,10.6,0000.0,0002.35,0007.36,0000.87
2022-04-23 07:44:00,,0809.3,4.99,0.00,25.2,24.1,00.0,34.3,26.8,10.6,0000.0,0002.43,0007.44,0000.87
2022-04-23 07:45:00,,0809.3,5.02,0.00,25.2,24.1,00.0,34.3,26.8,10.6,0000.0,0002.45,0007.40,0000.87
2022-04-23 07:46:00,,0809.3,4.99,0.00,25.1,24.0,00.0,34.3,26.8,10.5,0000.0,0002.33,0007.09,0000.85
2022-04-23 07:47:00,,0809.3,5.00,0.00,25.1,24.0,00.0,34.3,26.9,10.5,0000.0,0002.31,0007.04,0000.83
2022-04-23 07:48:00,,0809.4,5.00,0.00,25.1,24.0,00.0,34.3,26.8,10.5,0000.0,0002.25,0007.13,0000.81
2022-04-23 07:49:00,,0809.3,5.00,0.00,25.1,24.0,00.0,34.3,26.8,10.5,0000.0,0002.25,0006.14,0000.78
2022-04-23 07:50:00,,0809.2,5.01,0.00,25.1,24.0,00.0,34.3,26.8,10.4,0000.0,0002.22,0006.34,0000.74
2022-04-23 07:51:00,,0809.2,5.01,0.00,25.1,24.0,00.0,34.2,26.8,10.3,0000.0,0002.20,0006.76,0000.73
2022-04-23 07:52:00,,0809.1,4.99,0.00,25.1,24.0,00.0,34.2,26.8,10.2,0000.0,0002.16,0007.25,0000.72
2022-04-23 07:53:00,,0809.2,5.02,0.00,25.1,24.0,00.0,34.2,26.8,10.3,0000.0,0002.13,0007.13,0000.71
2022-04-23 07:54:00,,0809.3,4.99,0.00,25.1,24.0,00.0,34.2,26.8,10.3,0000.0,0002.05,0006.49,0000.68
2022-04-23 07:55:00,,0809.3,5.02,0.00,25.1,23.9,00.0,34.2,26.7,10.4,0000.0,0001.90,0005.78,0000.67
2022-04-23 07:56:00,,0809.3,4.99,0.00,25.1,23.9,00.0,34.2,26.8,10.4,0000.0,0001.83,0006.03,0000.65
2022-04-23 07:57:00,,0809.3,5.01,0.00,25.1,23.8,00.0,34.2,26.7,10.5,0000.0,0001.87,0006.95,0000.66
2022-04-23 07:58:00,,0809.3,4.99,0.00,25.0,23.8,00.0,34.2,26.7,10.5,0000.0,0001.92,0007.09,0000.66
2022-04-23 07:59:00,,0809.3,5.02,0.00,25.0,23.7,00.0,34.2,26.7,10.6,0000.0,0001.90,0007.50,0000.66
